Dewpoint
56 52 50 43 46 46 37 40 24 34 29 25 25 26 22 27 31 32 34 34 34 35 37 39 39 39 36 40 45 53 55 41 40 39 38 50 63 66 67 67 68 68 68 68 68 68 69 70 69 68 67 68 67 68 69 70 70 70 70 69 68 67 67 67 67 66 66 65 64 64 64 65 66 66 66 65 65 65 65 65 65 65 65 65 65 66 65 65 65 65 67 69 69 69 69 68 68
54 54 48 47 47 36 31 37 32 30 29 25 21 25 25 23 32 32 31 34 35 35 37 48 50 50 51 53 55 52 50 56 56 51 58 63 66 66 67 68 68 68 68 68 68 68 68 69 69 69 68 67 67 68 69 70 70 70 70 69 68 68 67 66 66 66 65 65 64 67 67 66 65 66 66 65 64 64 65 65 65 65 65 65 65 66 66 65 65 65 67 68 68 68 68 67 67
56 53 44 46 43 39 38 36 28 27 26 20 20 22 24 21 29 28 31 34 35 35 41 47 44 44 46 49 48 46 44 57 59 60 62 65 64 65 67 68 68 68 68 68 68 68 67 68 69 68 68 68 68 68 70 70 70 70 69 69 69 68 67 67 65 65 64 63 65 65 67 68 68 68 67 65 64 64 63 64 64 64 65 65 65 66 66 66 65 65 66 68 68 67 67 67 67
54 52 45 45 38 41 30 30 33 26 24 26 19 20 25 19 24 28 34 36 36 35 37 37 37 39 48 47 52 55 55 57 58 62 62 63 64 66 67 68 68 68 68 68 68 68 68 68 69 69 68 68 68 67 69 70 70 70 70 69 69 68 68 67 66 66 64 63 64 66 66 67 68 68 69 68 67 66 66 65 65 65 65 64 65 66 65 66 66 66 66 67 68 67 67 67 67
46 53 46 45 40 36 34 30 27 26 22 24 18 20 30 30 30 34 36 38 37 37 38 38 40 43 50 50 50 49 52 56 59 59 60 62 66 67 67 68 68 68 68 68 68 68 68 68 69 69 68 68 68 67 69 70 70 70 70 69 69 69 69 67 67 66 66 65 64 64 65 66 67 68 68 68 69 68 68 68 67 67 67 67 66 67 66 66 66 65 67 68 68 68 67 67 67
49 48 50 43 36 41 34 27 28 27 27 25 24 29 31 31 33 36 37 35 35 38 39 36 39 41 53 53 53 52 57 56 59 59 61 64 66 67 67 67 67 67 68 68 68 68 67 68 69 69 69 68 68 67 67 69 69 69 70 70 69 69 68 67 67 66 65 65 65 63 63 67 67 68 68 69 69 68 68 68 68 67 67 67 67 67 67 66 66 66 66 67 68 67 67 67 67
42 44 46 38 37 39 31 28 28 28 23 24 28 30 32 32 35 35 34 35 36 36 37 41 50 50 52 53 55 57 59 58 58 59 62 65 66 67 67 67 67 67 68 68 68 68 67 68 69 70 69 69 68 68 67 68 69 69 69 69 69 69 67 67 67 66 66 65 64 63 66 67 67 68 68 68 68 67 67 67 67 67 67 67 67 67 67 66 66 66 66 68 67 67 66 66 66
50 39 39 30 31 27 26 29 29 26 17 23 31 31 32 33 35 36 35 35 35 35 37 44 41 42 43 53 51 56 60 59 59 62 64 65 66 66 66 66 66 67 68 68 68 67 69 68 69 69 69 69 69 68 67 67 69 69 69 69 69 69 68 68 67 66 65 65 64 64 65 66 65 67 68 68 67 67 67 67 67 66 66 66 66 66 66 66 66 66 67 67 67 67 66 66 66
44 39 44 32 26 31 25 24 26 30 19 29 32 35 40 34 35 35 31 33 32 35 35 35 37 39 45 54 53 56 58 60 61 63 64 65 65 65 65 66 66 67 67 68 68 68 67 68 69 69 69 69 69 68 67 67 69 69 69 69 69 69 69 68 67 66 66 65 64 64 64 65 67 68 66 65 65 65 65 66 66 65 66 66 65 66 66 66 66 66 67 67 67 66 66 66 66
41 37 31 32 34 26 27 28 21 18 18 21 31 33 35 33 33 30 31 32 32 35 36 36 37 39 49 54 54 56 57 60 61 62 64 65 65 65 65 66 67 67 67 67 68 68 67 69 68 69 69 69 69 68 68 67 68 68 68 69 69 69 68 67 67 66 65 65 64 64 63 65 67 65 65 65 65 65 66 65 66 66 65 65 65 65 66 65 66 66 66 67 67 66 65 65 65
37 39 42 30 28 24 26 28 27 20 18 20 30 33 33 31 28 29 31 30 30 32 32 44 49 52 53 53 52 56 59 60 61 61 63 64 64 64 65 67 67 67 67 68 68 68 68 67 69 68 68 68 69 68 68 68 68 67 68 68 68 68 68 67 66 66 65 64 64 64 63 66 67 66 66 66 66 66 66 66 66 66 65 65 65 66 65 65 65 66 66 66 66 66 65 64 64
33 35 36 30 27 24 27 26 25 21 19 23 29 29 28 28 27 25 27 27 30 31 32 38 45 53 52 52 53 57 59 60 61 62 62 63 63 65 66 67 67 67 67 68 68 68 67 67 67 68 67 67 67 68 68 68 68 68 68 68 68 68 67 67 66 65 64 63 64 64 63 66 68 67 66 66 66 66 65 65 65 65 65 65 65 65 65 65 65 65 66 66 66 65 65 64 64
36 39 32 27 27 26 31 25 24 23 21 19 26 24 25 25 24 25 27 29 30 30 30 30 47 49 49 51 54 58 58 60 61 62 62 62 65 66 67 67 67 67 67 68 68 68 67 67 67 67 66 66 66 66 67 67 68 68 68 68 68 68 68 67 66 67 66 65 64 65 66 67 68 68 67 67 67 66 66 66 66 66 66 65 65 65 65 65 65 65 66 65 65 65 64 64 64
36 39 32 28 31 28 25 25 24 17 16 21 20 25 25 25 24 25 30 29 30 29 30 34 47 54 53 55 56 56 58 60 61 62 62 63 65 66 66 66 66 67 68 68 68 68 68 67 67 66 66 66 65 65 65 66 67 68 68 68 68 68 68 68 68 68 68 67 67 67 67 67 68 68 68 67 67 67 66 66 66 65 65 64 64 64 65 65 65 65 65 65 65 64 64 64 63
37 43 37 35 30 26 28 20 19 19 16 20 21 24 25 27 24 27 29 28 29 29 31 37 52 42 48 54 54 57 58 60 61 62 62 63 65 65 65 65 66 67 68 68 68 68 68 68 67 66 65 66 65 65 65 65 65 66 67 67 67 68 68 67 66 66 65 65 65 65 65 65 65 65 65 65 66 65 65 64 64 65 64 64 64 65 65 65 65 65 65 65 65 64 64 63 63
41 40 36 32 28 24 26 20 26 20 17 22 23 25 23 24 26 25 26 28 27 35 32 32 41 30 43 52 53 58 59 60 61 61 61 62 64 65 65 65 66 67 67 67 68 68 68 68 68 67 66 65 65 65 65 64 64 64 65 66 66 66 65 65 64 64 63 62 62 62 62 62 62 62 62 63 63 64 64 62 63 65 64 64 65 64 64 65 65 65 65 65 64 63 63 62 63
42 36 25 31 26 26 28 20 21 17 24 25 25 24 23 23 25 24 25 28 29 40 53 53 43 55 54 50 52 59 59 61 61 61 61 62 63 64 64 64 65 65 66 67 67 67 68 68 67 67 67 66 66 65 64 64 64 64 64 63 63 63 63 63 63 61 59 59 59 59 60 60 60 60 60 60 60 61 60 61 63 65 65 65 64 64 64 64 65 65 64 64 63 62 61 61 60
35 28 28 25 30 26 31 19 20 22 20 22 24 24 22 21 23 24 28 37 41 45 49 48 57 57 57 57 58 59 60 61 60 60 60 61 62 62 63 64 64 64 65 66 67 67 67 67 67 67 67 67 67 66 65 64 65 64 63 62 62 62 61 60 60 60 62 58 59 60 59 60 59 59 59 62 60 61 61 60 62 64 65 65 65 64 64 64 64 64 64 63 62 62 60 55 55
30 32 29 25 30 29 29 22 19 21 20 22 24 25 23 22 22 23 24 29 36 39 43 52 55 56 58 58 59 60 60 60 60 60 59 60 61 62 62 63 63 64 64 65 65 66 66 67 67 67 67 67 67 67 66 65 65 64 63 62 61 61 61 60 60 60 59 59 58 58 58 59 59 58 60 60 59 59 60 60 62 63 64 64 64 64 64 64 64 64 63 62 62 61 55 54 55
34 25 23 29 36 29 18 18 20 23 23 23 24 23 24 23 22 24 23 26 30 36 48 49 52 53 56 57 59 59 60 60 60 59 59 59 60 61 61 62 62 63 64 64 64 65 65 66 67 67 67 67 67 67 66 65 65 64 63 62 61 61 61 61 60 60 59 59 59 59 58 58 59 59 61 61 61 59 59 59 60 60 61 62 62 62 63 63 63 63 63 62 60 57 55 54 55
32 24 26 30 31 21 16 21 20 20 23 23 23 23 23 24 23 21 21 22 23 26 45 49 53 55 56 58 58 59 59 59 59 59 59 59 59 60 61 62 62 62 63 63 63 64 65 65 66 67 66 67 67 67 66 65 65 64 63 62 61 61 61 61 61 60 60 59 59 59 58 58 58 59 58 58 58 58 57 58 58 58 59 58 58 56 56 57 56 55 56 56 54 55 55 55 55
31 21 24 30 24 19 19 21 22 24 23 23 21 20 21 22 22 20 21 19 19 20 29 42 56 57 57 58 58 59 59 59 59 59 59 59 59 59 60 59 59 61 61 62 63 63 65 65 66 66 66 66 66 67 66 65 65 65 64 63 62 62 61 61 61 60 60 60 59 59 59 59 58 58 58 58 58 58 57 57 57 56 55 55 56 56 55 54 53 54 54 56 55 55 54 55 55
25 25 24 25 22 19 20 21 21 21 22 21 19 20 21 21 21 20 20 19 19 19 25 33 57 58 58 58 58 58 58 58 58 58 59 59 59 59 60 60 60 61 61 62 62 63 65 65 65 65 66 66 66 67 66 65 65 65 64 63 63 62 61 61 61 60 60 60 59 59 59 59 59 58 58 57 58 58 58 56 56 56 56 56 55 56 54 54 54 54 54 55 54 55 55 54 54
27 23 21 21 22 19 21 20 22 19 22 21 21 21 21 20 19 19 18 17 18 20 19 38 58 58 58 58 58 58 58 58 58 59 59 60 60 60 60 60 61 61 60 61 62 62 63 65 65 65 65 66 66 66 66 65 65 64 64 63 63 62 62 61 61 61 60 60 59 59 59 60 59 58 58 57 57 57 57 58 57 56 56 55 55 55 55 54 53 53 54 54 54 53 53 53 53
26 25 24 22 22 22 23 21 20 20 20 20 21 19 19 19 18 16 17 17 17 24 30 48 58 58 58 58 58 58 58 58 58 58 59 59 60 60 59 60 60 60 60 61 61 62 62 64 65 65 65 65 66 66 66 65 64 64 63 63 63 61 62 62 62 61 60 60 59 59 59 59 59 59 58 58 56 57 56 57 57 56 56 56 55 55 54 54 53 53 53 53 53 53 52 53 53
24 24 24 22 21 22 21 19 20 20 20 19 18 19 19 20 21 17 16 16 22 38 30 54 58 58 58 58 58 58 58 58 58 58 59 59 59 59 59 59 60 59 61 61 61 62 62 63 64 65 65 66 66 66 66 65 64 64 63 63 63 61 62 62 61 60 61 60 59 59 59 59 59 59 58 57 57 57 56 55 56 56 57 55 55 56 54 53 53 52 52 52 52 52 52 54 53
22 22 21 20 20 22 23 20 20 21 22 19 17 19 18 20 18 14 17 18 32 41 43 55 57 57 57 57 58 58 58 58 58 59 58 58 58 59 59 59 60 60 60 61 61 61 61 62 63 64 65 64 65 65 65 65 64 64 64 63 63 62 62 61 61 61 60 60 60 59 58 58 58 58 58 57 57 57 56 56 56 56 56 55 55 55 54 54 54 53 53 52 53 52 53 52 53
20 21 21 20 20 25 21 20 20 20 18 19 18 18 21 20 22 14 15 18 40 41 46 54 56 56 57 57 57 57 58 58 58 58 58 58 58 59 59 58 59 60 59 60 61 61 61 62 62 63 65 65 64 65 64 65 64 64 64 64 63 62 62 61 61 60 60 60 59 59 59 58 58 57 57 57 57 57 56 56 55 55 56 55 55 54 54 54 54 53 51 51 52 52 52 51 51
21 20 18 19 18 19 20 18 20 24 17 20 20 16 16 20 16 17 17 24 38 43 45 49 52 55 56 56 57 57 58 58 58 58 58 59 59 59 59 59 59 59 59 60 60 60 60 61 62 63 64 64 64 64 64 65 64 64 64 64 63 62 62 61 61 61 60 60 59 59 59 58 58 58 57 57 56 57 56 56 54 55 55 55 54 54 54 52 52 52 52 52 51 51 52 51 51
21 20 18 17 17 15 16 22 22 20 19 21 19 14 16 15 17 19 20 28 33 42 44 45 47 51 54 55 56 56 57 56 57 58 59 59 59 59 59 59 59 59 59 59 60 60 60 61 62 62 63 64 64 64 64 64 64 64 64 64 63 62 62 62 61 61 61 60 60 59 59 59 58 58 58 57 56 56 56 56 55 54 53 54 54 53 53 53 51 51 51 51 52 51 50 49 50
28 18 18 19 17 17 18 20 20 19 23 21 15 15 14 14 15 19 22 27 30 36 40 43 44 46 50 53 54 55 55 57 58 58 58 59 59 59 59 59 59 59 59 59 59 60 60 61 61 61 62 63 63 64 63 63 63 63 64 64 63 63 62 62 61 61 61 60 60 60 59 59 58 58 57 58 57 56 56 55 55 55 54 53 53 53 53 52 52 52 50 51 50 50 50 49 49
17 14 15 19 17 20 23 22 20 16 19 21 14 19 13 12 12 14 19 24 24 27 33 38 38 42 45 49 52 53 53 55 57 58 58 59 59 60 59 59 59 60 59 59 59 60 60 60 60 61 61 63 63 64 63 63 63 63 64 62 63 62 62 62 62 61 61 61 60 60 59 59 58 58 57 57 57 56 56 56 56 55 53 53 52 52 52 53 52 51 51 51 51 51 49 51 49
19 14 23 20 20 19 16 19 20 21 19 18 14 13 14 8 9 17 22 21 22 21 23 29 31 33 37 42 46 49 49 51 54 57 58 58 59 60 60 59 59 59 60 60 60 60 60 60 60 60 61 62 63 63 63 63 63 63 63 64 63 63 63 62 62 62 61 61 60 60 60 60 59 58 57 56 56 56 55 55 55 54 53 53 52 52 52 53 52 52 51 50 51 52 50 50 50
17 22 16 26 15 16 15 18 21 25 15 14 17 15 13 10 13 15 21 20 19 19 19 20 24 27 29 33 38 43 45 47 49 53 56 57 58 59 60 59 59 59 60 60 60 60 60 60 60 60 61 62 62 63 63 63 63 63 63 64 63 63 63 63 62 62 62 61 61 60 60 60 60 60 58 57 56 56 56 55 55 54 53 53 53 53 54 53 53 53 52 52 53 52 51 50 50
17 14 14 13 12 16 16 17 15 17 19 13 15 16 15 14 14 14 18 22 18 17 17 17 17 20 25 26 28 35 41 44 46 49 53 56 57 58 59 59 60 60 60 60 60 60 60 60 60 60 60 61 62 62 62 63 62 62 63 63 63 63 63 63 63 62 62 62 61 61 60 61 60 60 59 58 58 56 56 55 55 55 54 54 54 53 53 53 53 52 52 52 51 53 52 50 50
22 18 15 21 14 15 15 17 19 17 17 15 14 14 14 14 14 14 14 20 18 17 16 16 16 16 20 24 25 28 36 41 44 47 50 53 56 57 58 59 59 60 60 60 60 60 60 60 60 60 60 61 62 62 62 62 62 62 62 61 63 63 63 63 63 63 62 62 62 61 61 61 60 60 60 59 58 58 57 56 56 56 55 54 54 53 53 52 52 52 51 52 51 51 51 51 51
14 22 18 14 14 14 17 21 22 21 17 16 15 14 13 13 13 13 13 15 20 20 18 17 17 17 16 19 23 25 30 36 42 46 48 51 54 56 57 58 59 59 60 60 60 60 60 60 60 60 60 61 61 62 62 62 62 61 61 62 62 63 63 63 62 62 62 62 62 62 61 61 61 60 60 60 59 58 59 59 57 56 55 54 54 53 53 53 53 52 52 51 51 51 51 51 52
14 20 19 11 22 11 16 20 22 21 17 16 16 17 17 15 15 14 14 16 14 17 18 18 17 17 18 18 20 24 26 33 37 42 45 49 53 54 56 57 57 58 59 60 59 59 60 61 60 60 60 61 61 62 62 62 62 62 62 62 62 62 63 63 63 63 62 61 62 62 61 61 61 60 60 60 59 59 59 59 57 56 55 54 54 54 53 52 52 52 52 51 51 51 50 51 52
19 16 19 17 15 23 20 22 22 21 19 15 21 14 15 16 16 16 14 14 14 15 18 17 17 18 18 18 19 21 25 28 31 37 42 46 51 53 55 56 57 58 58 59 60 59 60 60 61 60 61 61 61 61 62 62 62 62 62 61 62 59 61 63 64 63 62 61 61 61 61 61 61 61 60 60 60 60 59 59 58 57 55 54 54 53 53 52 52 52 51 51 50 49 50 51 51
17 20 18 14 20 17 14 16 21 20 13 16 21 16 17 16 16 17 18 16 15 17 18 19 19 17 16 17 18 20 21 26 27 29 32 39 47 51 54 55 56 57 57 58 59 59 59 59 60 61 61 61 61 61 60 62 62 62 60 58 59 59 58 60 61 61 62 62 61 60 61 61 61 61 61 60 60 60 60 59 59 58 56 54 54 53 53 52 52 52 51 50 50 50 49 49 50
24 23 23 19 23 17 13 13 21 22 22 24 15 15 10 12 8 9 9 16 19 19 20 20 21 23 22 27 26 23 19 22 26 26 28 31 41 47 52 54 55 56 56 57 58 59 59 59 60 61 61 61 61 60 61 61 60 59 59 57 56 57 55 58 60 61 62 62 62 61 60 60 61 61 61 61 60 60 60 60 59 59 57 55 54 54 53 53 53 52 51 51 50 51 51 48 48
17 26 21 20 19 16 26 23 17 17 17 23 16 8 16 21 23 15 8 12 10 15 18 18 19 20 22 21 21 24 29 27 24 25 27 28 35 43 48 52 54 55 56 56 58 58 59 59 60 60 61 61 61 61 61 61 60 61 59 59 59 59 59 58 59 60 61 61 62 62 61 60 60 61 61 61 61 60 60 59 59 58 57 56 55 54 54 54 53 52 52 51 51 51 51 51 50
16 13 27 27 21 22 24 24 20 11 10 19 16 8 12 14 16 17 19 19 13 11 16 16 17 18 20 22 22 22 24 25 28 28 29 30 32 39 45 49 52 54 55 56 57 58 58 59 59 60 61 61 61 61 60 60 60 61 60 60 60 60 60 60 60 59 61 62 62 62 62 61 60 60 60 61 61 60 60 60 59 58 57 57 56 55 55 54 54 53 53 53 53 52 51 50 51
14 25 29 28 26 25 24 22 23 21 25 24 24 13 5 8 9 16 19 17 16 15 15 15 14 16 18 19 21 23 24 24 27 27 28 30 32 36 41 46 50 53 55 56 56 57 58 58 59 59 60 60 61 61 60 60 61 60 60 60 59 59 59 59 59 57 57 59 61 62 62 62 61 60 60 60 61 61 60 60 59 58 57 56 55 55 55 54 54 53 53 53 52 52 51 51 51
20 30 29 26 23 26 27 23 22 23 20 18 20 22 10 14 16 19 18 11 10 10 9 14 16 15 15 18 20 22 24 25 26 28 29 29 33 35 38 42 47 51 53 55 56 57 57 58 58 59 60 60 60 60 60 60 60 60 60 60 59 59 59 57 53 53 56 57 59 60 61 62 61 61 60 59 60 61 60 60 59 58 58 57 55 55 55 55 54 54 53 52 52 52 51 51 51
30 35 35 33 32 31 28 24 22 20 9 12 16 19 8 13 19 18 16 11 12 12 12 12 15 18 19 20 20 23 26 29 31 32 32 33 34 36 37 40 42 47 49 50 51 52 54 55 56 57 58 59 59 60 60 60 60 59 60 59 59 58 55 53 53 55 55 55 58 58 60 61 61 61 60 60 60 60 60 59 59 59 58 57 54 55 55 54 54 53 53 52 52 52 52 52 51
35 31 27 27 27 26 25 25 23 20 10 17 19 22 10 6 15 13 11 12 5 5 8 10 14 25 30 27 22 25 27 31 33 34 37 38 39 39 39 38 39 41 42 43 46 49 51 53 54 56 58 58 58 59 59 59 60 59 59 59 58 58 55 54 54 53 54 53 56 56 58 60 60 60 60 60 60 60 59 58 59 59 58 55 54 54 54 54 54 54 53 52 52 52 52 51 51
29 26 23 22 22 24 25 23 23 10 11 18 22 21 11 6 10 16 14 13 16 11 11 12 14 18 31 34 34 31 31 33 36 37 37 38 40 39 38 39 40 40 40 41 43 44 47 51 52 54 54 56 56 58 58 59 59 59 59 58 58 57 56 56 56 55 55 55 55 55 56 58 59 59 59 60 60 59 58 58 57 58 57 57 56 56 55 55 55 54 54 53 53 52 52 51 51
25 22 18 18 15 20 10 14 9 9 9 15 18 22 18 15 9 9 11 12 13 14 13 12 13 22 32 33 33 34 36 35 36 36 37 37 40 40 38 38 40 41 41 41 41 42 44 47 50 52 53 53 55 55 57 58 58 58 58 57 56 56 56 56 56 56 54 55 54 53 53 56 56 57 58 59 59 59 58 58 58 58 58 57 57 56 56 56 55 54 54 52 52 51 52 51 51
20 18 19 17 11 7 6 9 8 7 13 17 18 20 14 16 16 20 16 13 13 16 15 16 18 28 31 32 33 32 33 34 34 35 36 37 38 39 39 38 38 40 40 40 40 41 42 45 47 50 51 50 51 53 55 56 56 56 55 56 56 56 55 55 55 56 54 54 54 54 54 56 56 57 57 58 59 59 58 58 58 58 58 58 57 57 56 55 54 54 53 53 52 53 52 51 51
18 24 20 21 16 10 2 6 6 11 14 15 22 13 16 11 11 18 17 18 19 19 16 18 22 30 32 33 33 33 33 34 35 35 37 38 40 40 40 40 39 39 41 41 40 41 41 42 44 47 49 48 50 52 52 54 54 52 52 54 55 55 55 55 55 54 53 52 51 52 51 51 55 55 57 57 57 57 56 57 57 57 57 56 56 56 55 55 54 54 53 53 51 50 50 50 50
24 27 24 19 17 21 12 17 15 13 10 11 11 14 20 11 16 18 19 20 20 22 22 24 27 27 28 30 32 32 33 35 36 38 39 40 41 41 41 41 41 40 41 41 41 42 42 42 42 45 48 47 48 49 50 52 51 51 51 52 53 53 52 53 50 49 50 52 52 52 51 52 53 54 55 55 55 56 56 56 56 56 56 55 55 54 53 53 53 53 52 52 52 51 52 51 49
23 20 18 25 26 21 15 16 19 15 12 10 16 14 18 18 10 10 14 15 13 17 19 21 22 23 25 29 31 31 32 34 36 39 40 40 41 42 42 42 42 42 42 42 43 44 44 44 44 44 44 45 47 48 50 49 50 50 49 51 51 51 52 52 53 51 52 51 52 53 53 53 54 55 55 55 55 54 54 54 54 52 52 53 53 52 52 52 52 51 51 51 51 49 49 49 49
22 16 19 28 30 27 18 9 12 9 9 12 12 11 12 6 12 22 9 10 10 15 17 18 21 23 23 26 29 30 31 34 37 40 41 41 42 42 43 43 43 43 43 43 44 44 45 45 45 45 45 48 45 47 48 49 50 50 49 50 49 51 52 52 53 53 53 53 52 52 52 54 54 54 53 51 52 51 51 50 51 50 49 49 48 47 46 47 48 48 48 48 47 49 48 45 45
22 21 29 15 14 10 15 14 4 3 1 3 9 15 13 11 12 15 5 7 8 8 15 18 17 19 22 24 27 30 35 37 38 41 41 42 42 42 42 43 44 44 44 44 45 46 45 45 45 46 47 47 47 47 47 48 50 51 51 51 51 52 53 53 53 53 54 54 53 52 52 51 51 51 51 50 49 48 47 46 47 46 46 46 46 45 44 43 43 45 44 44 43 44 44 43 42
29 26 21 24 20 24 15 15 15 13 7 0 10 8 13 18 13 13 6 8 13 9 11 16 17 17 19 24 29 31 36 38 39 40 41 41 42 42 42 43 44 44 45 45 44 45 45 45 45 45 45 46 47 48 49 50 50 52 51 52 52 53 52 53 54 55 55 54 53 51 51 50 49 48 48 47 47 46 45 44 43 43 41 40 40 39 39 39 39 38 38 39 38 40 41 40 40
22 21 18 17 20 23 21 16 16 9 6 5 2 -0 14 17 17 12 6 3 5 10 14 20 20 19 20 26 31 36 37 37 38 38 40 41 41 42 43 43 43 42 42 43 44 45 44 45 45 46 48 47 48 48 50 50 51 51 51 52 52 53 53 53 52 52 52 51 50 49 49 48 47 46 45 45 44 43 42 41 40 39 39 38 38 37 35 36 36 35 36 36 36 38 37 36 36
23 21 18 16 19 16 12 13 18 13 6 4 -0 6 14 19 21 12 8 5 7 12 14 19 20 20 20 27 33 37 36 37 39 39 40 40 39 40 40 40 40 41 42 42 42 44 44 45 46 46 47 48 49 49 50 50 51 52 53 53 52 52 51 50 49 49 48 48 48 47 46 44 44 41 43 42 41 40 39 39 39 38 37 38 38 40 35 36 36 36 35 38 36 36 36 35 34